
SB KEPS @ AMSAT $ORB09246.N 2Line Orbital Elements 09246.AMSAT
HR AMSAT ORBITAL ELEMENTS FOR AMATEUR SATELLITES IN NASA FORMAT FROM WA5QGD FORT WORTH,TX September 3, 2009 Send Subscribe/unsubscribe to KEPS at http://www.amsat.org/mailman/listinfo/keps BID: ORB09246.N
DECODE 2-LINE ELSETS WITH THE FOLLOWING KEY: 1 AAAAAU 00 0 0 BBBBB.BBBBBBBB .CCCCCCCC 00000-0 00000-0 0 DDDZ 2 AAAAA EEE.EEEE FFF.FFFF GGGGGGG HHH.HHHH III.IIII JJ.JJJJJJJJKKKKKZ KEY: A-CATALOGNUM B-EPOCHTIME C-DECAY D-ELSETNUM E-INCLINATION F-RAAN G-ECCENTRICITY H-ARGPERIGEE I-MNANOM J-MNMOTION K-ORBITNUM Z-CHECKSUM
TO ALL RADIO AMATEURS BT
AO-07 1 07530U 74089B 09245.58078478 -.00000027 00000-0 10000-3 0 05721 2 07530 101.4237 267.4092 0011959 115.8759 244.3544 12.53576367592418 FO-29 1 24278U 96046B 09245.72709795 -.00000017 00000-0 16912-4 0 01291 2 24278 098.5399 109.3026 0350927 149.3152 212.9032 13.52944534644238 SO-33 1 25509U 98061B 09245.57011099 .00000108 00000-0 80263-5 0 05345 2 25509 031.4364 334.9249 0354749 294.9577 061.4581 14.28263277566906 RS-22 1 27939U 03042A 09245.67104587 .00000077 00000-0 23801-4 0 8808 2 27939 097.9321 117.6731 0012505 247.1676 112.8199 14.63337937316901 VO-52 1 28650U 05017B 09244.36486526 -.00000052 00000-0 -38470-7 0 03120 2 28650 097.7357 303.4013 0028004 138.8685 221.4599 14.81614363233926 AO-16 1 20439U 90005D 09245.63219568 .00000016 00000-0 21590-4 0 06942 2 20439 098.2878 210.5434 0010214 304.5179 055.5041 14.31832141024237 LO-19 1 20442U 90005G 09245.46689780 -.00000078 00000-0 -13609-4 0 06081 2 20442 098.2508 217.3482 0011030 299.8632 060.1454 14.32066348024370 AO-27 1 22825U 93061C 09245.78217995 -.00000073 00000-0 -12191-4 0 03316 2 22825 098.4440 196.7878 0008955 041.2239 318.9593 14.29271731830998 IO-26 1 22826U 93061D 09245.61872011 .00000004 00000-0 18304-4 0 596 2 22826 098.4361 197.3443 0009587 036.4769 323.7060 14.29524862831071 GO-32 1 25397U 98043D 09245.62042332 -.00000165 00000-0 -55093-4 0 09824 2 25397 098.3251 263.8084 0001930 051.9277 308.2078 14.23162114579140 NO-44 1 26931U 01043C 09245.52282623 .00000217 00000-0 11695-3 0 02571 2 26931 067.0507 225.1029 0006630 275.6068 084.4279 14.29566360413631 SO-50 1 27607U 02058C 09245.93862172 -.00000020 00000-0 18806-4 0 09759 2 27607 064.5585 148.9485 0058435 186.5744 173.4612 14.71455661360111 CO-55 1 27844U 03031E 09245.67655852 .00000030 00000-0 34263-4 0 6583 2 27844 098.7143 253.7533 0009125 284.1497 075.8659 14.20653558320261 CO-57 1 27848U 03031J 09245.52406231 -.00000004 00000-0 18657-4 0 06071 2 27848 098.7178 252.6656 0009103 288.0514 071.9669 14.20453447320203 AO-51 1 28375U 04025K 09245.68312070 -.00000002 00000-0 12291-4 0 04776 2 28375 098.0538 250.7758 0082995 250.3490 108.8726 14.40650788272118 CO-56 1 28941U 06005C 09246.78080689 .00104723 68764-5 22352-3 0 4076 2 28941 098.1380 076.6668 0060578 193.3352 166.6333 15.95295267199734 GENESAT1 1 29655U 06058C 09246.85444574 .00012118 00000-0 11243-3 0 7982 2 29655 040.0228 049.8373 0003958 350.4811 009.5930 15.67139122154818 CP3 1 31129U 07012N 09246.10313324 .00000070 00000-0 26702-4 0 1703 2 31129 097.9816 295.4230 0103391 044.3389 316.6027 14.52158779126194 CO-65 1 32785U 08021C 09245.25594560 -.00000099 00000-0 -57573-5 0 04674 2 32785 097.9390 308.5601 0015795 137.9245 222.3182 14.81511859072850 KKS-1 1 33493U 09002B 09246.28513902 .00000193 00000-0 32083-4 0 7186 2 33493 098.0619 358.8601 0019899 353.1234 006.9730 14.80721441 33020 SOHLA-1 1 33496U 09002E 09246.76289331 .00000029 00000-0 13164-4 0 6847 2 33496 098.0421 354.8657 0007584 040.7368 319.4405 14.69445158 32818 NOAA-10 1 16969U 86073A 09245.61508906 -.00000009 00000-0 14231-4 0 07476 2 16969 098.6889 271.8298 0012124 335.5245 024.5367 14.27393179194552 NOAA-11 1 19531U 88089A 09245.78274893 .00000084 00000-0 66236-4 0 07661 2 19531 098.7824 334.5331 0010806 246.9032 113.0992 14.14902826080495 NOAA-12 1 21263U 91032A 09245.94384730 .00000016 00000-0 25728-4 0 02669 2 21263 098.7744 254.0469 0011413 283.1098 076.8807 14.25591224951473 MET-3/5 1 21655U 91056A 09245.94157772 .00000051 00000-0 10000-3 0 06685 2 21655 082.5559 151.5815 0014076 352.6035 007.4877 13.17020239867869 MET-2/21 1 22782U 93055A 09246.78451631 -.00000008 00000-0 -20942-4 0 5558 2 22782 082.5477 119.6761 0023479 123.7812 236.5589 13.83638308808474 OKEAN-4 1 23317U 94066A 09245.91073957 .00000276 00000-0 31045-4 0 00074 2 23317 082.5375 261.9538 0023927 106.9448 253.4385 14.82717983803884 NOAA-14 1 23455U 94089A 09246.30346552 -.00000283 00000-0 -12590-3 0 7441 2 23455 098.9045 323.6919 0008849 334.8187 025.2562 14.13767537756961 NOAA-15 1 25338U 98030A 09245.30199821 -.00000048 00000-0 -19636-5 0 674 2 25338 098.5908 232.8434 0010401 187.7285 172.3770 14.24781816587753 RESURS 1 25394U 98043A 09245.93320460 -.00000027 00000-0 62252-5 0 03147 2 25394 098.3348 274.3076 0001982 015.7944 344.3297 14.24188675579468 FENGYUN1 1 25730U 99025A 09245.95712381 .00000541 00000-0 34270-3 0 08637 2 25730 098.7588 213.7999 0022889 359.0899 001.0226 14.07971298531262 OKEAN-0 1 25860U 99039A 09245.51315776 .00000008 00000-0 85912-5 0 07767 2 25860 097.7945 223.6530 0000764 043.3127 316.8139 14.73585677544537 NOAA-16 1 26536U 00055A 09245.78499536 .00000271 00000-0 17202-3 0 05466 2 26536 099.1798 251.3397 0011390 066.5077 293.7282 14.12531780461255 NOAA-17 1 27453U 02032A 09245.91977640 .00000022 00000-0 27983-4 0 05455 2 27453 098.4771 302.2844 0010656 254.9971 105.0036 14.24087305373818 NOAA-18 1 28654U 05018A 09245.96335776 .00000368 00000-0 22810-3 0 00315 2 28654 098.9100 188.6151 0014921 140.6731 219.5532 14.11284011220928 NOAA-19 1 33591U 09005A 09245.96008318 .00000256 00000-0 16631-3 0 02367 2 33591 098.7498 189.7148 0014702 026.7850 333.4075 14.10984167029409 HUBBLE 1 20580U 90037B 09244.65406660 .00000261 00000-0 71806-5 0 04414 2 20580 028.4720 323.2336 0003224 017.1890 342.8819 15.00825712861358 ISS 1 25544U 98067A 09245.64853169 .00012336 00000-0 89109-4 0 05365 2 25544 051.6400 269.1982 0009342 045.4733 052.9797 15.73928673618150 CO-58 1 28895U 05043F 09245.72449255 .00000221 00000-0 55618-4 0 3855 2 28895 098.0469 134.1250 0018888 104.6264 255.7032 14.59792155205045 FALCON 1 30776U 07006E 09245.67217934 .00000232 00000-0 19849-4 0 06589 2 30776 035.4350 349.2776 0001468 282.8359 077.2193 15.03293840136766 MAST 1 31126U 07012K 09246.58105012 -.00000001 00000-0 10329-4 0 6769 2 31126 097.9816 297.7669 0095444 037.0922 323.6831 14.53514252126423 CAPE1 1 31130U 07012P 09245.11238245 .00000002 00000-0 11038-4 0 06945 2 31130 097.9812 294.3792 0103735 047.5354 313.4554 14.52082578125857 COMPASS 1 32787U 08021E 09245.29362386 .00000224 00000-0 35179-4 0 04629 2 32787 097.9363 308.4411 0016617 138.7542 221.4912 14.81648030072867 AAUSAT2 1 32788U 08021F 09245.66023417 .00000005 00000-0 74315-5 0 04500 2 32788 097.9350 308.8747 0016124 138.2193 222.0248 14.81771539072927 DO-64 1 32789U 08021G 09245.81711938 .00000423 00000-0 60298-4 0 4632 2 32789 097.9393 309.2434 0016400 136.2664 223.9845 14.81780080 72947 CO-66 1 32791U 08021J 09245.21039378 .00000168 00000-0 28197-4 0 4447 2 32791 097.9379 308.3913 0016618 136.8040 223.4472 14.81471287 72814 RS-30 1 32953U 08025A 09245.86224501 .00000010 00000-0 00000 0 0 3955 2 32953 082.4996 208.3072 0020033 013.4639 346.6973 12.43002898 58040 TACSAT-3 1 35001U 09028A 09245.88643891 .00002099 00000-0 58414-4 0 01005 2 35001 040.4548 135.9216 0024655 016.2996 343.8611 15.39101085016329 PHARMSAT 1 35002U 09028B 09245.89853753 .00001660 00000-0 46298-4 0 00938 2 35002 040.4677 135.2296 0026883 020.7891 339.4037 15.39855246016321 HAWKSAT1 1 35003U 09028C 09246.90045768 .00003525 00000-0 89474-4 0 903 2 35003 040.4601 128.6556 0027447 031.3729 328.8721 15.40534533 16494 CP6 1 35004U 09028D 09245.92749964 .00004255 00000-0 10657-3 0 00945 2 35004 040.4604 134.4848 0027908 024.2914 335.9249 15.40573763016331 AEROCUB3 1 35005U 09028E 09245.94011338 .00004062 00000-0 10273-3 0 00844 2 35005 040.4726 134.7010 0027485 021.6736 338.5250 15.40374909016336 DRAGNSAT 1 35690U 09038B 09245.46831881 .00021964 00000-0 10978-3 0 00476 2 35690 051.6405 268.1637 0002165 179.8406 180.2600 15.81759814005379 POLLUX 1 35693U 09038E 09245.47951021 .00020334 00000-0 10461-3 0 00353 2 35693 051.6406 268.2443 0003795 116.7688 243.3699 15.81185727005343 CASTOR 1 35694U 09038F 09245.48778335 .00010971 00000-0 59863-4 0 00345 2 35694 051.6412 268.3064 0004142 128.4998 231.6375 15.80534110005346 /EX
participants (1)
-
Ray Hoad